I4GOS-3 Rimini IT current weather conditions

sailwx.info

Wind from 051

Air temperature 25.6° C
Dewpoint 21.0° C

Last reported at 2020-Aug-03 18:05 UTC.
Time now 2020-Aug-03 18:31 UTC

Location: N 44°04' E 012°33'.
View on Google Maps.

See reports from other nearby stations

  
Tides and Currents Weather Stations Pressure Air Temp Water Temp Dewpoint Dewpoint Depression Visibility Wind Speed Wind Dir Waves Ship Positions
date/time (UTC)wind fromknots sea level pressurealtimeterstation pressurevisibilityair tempwater tempwave heightnotes
2020-Aug-03 18:05 051 25.6
2020-Aug-03 18:02 311 25.6
2020-Aug-03 17:55 311 25.6
2020-Aug-03 17:50 311 25.6
2020-Aug-03 17:45 311 25.6
2020-Aug-03 17:40 311 25.6
2020-Aug-03 17:35 304 25.6
2020-Aug-03 17:30 301 25.6
2020-Aug-03 17:20 316 25.6
2020-Aug-03 17:15 308 25.6
2020-Aug-03 17:10 336 25.6
2020-Aug-03 17:05 291 25.6
2020-Aug-03 17:02 330 25.6
2020-Aug-03 16:55 308 25.6
2020-Aug-03 16:50 332 0 25.0
2020-Aug-03 16:45 334 3 25.0
2020-Aug-03 16:40 305 0 25.0
2020-Aug-03 16:35 286 5 25.0
2020-Aug-03 16:30 302 3 25.0
2020-Aug-03 16:25 310 5 25.0
2020-Aug-03 16:20 283 6 25.0
2020-Aug-03 16:15 285 3 25.0
2020-Aug-03 16:10 251 25.0
2020-Aug-03 16:05 264 3 25.0
2020-Aug-03 16:00 271 25.0
2020-Aug-03 15:55 308 25.6
2020-Aug-03 15:50 308 4 26.1
2020-Aug-03 15:45 295 6 27.2
2020-Aug-03 15:40 260 4 27.8
2020-Aug-03 15:35 187 8 27.8
2020-Aug-03 15:30 166 6 27.8
2020-Aug-03 15:25 185 8 27.8
2020-Aug-03 15:20 199 2 28.3
2020-Aug-03 15:15 138 18 29.4
2020-Aug-03 15:10 179 4 29.4
2020-Aug-03 15:08 123 4 28.3
2020-Aug-03 15:00 149 11 28.9
2020-Aug-03 14:55 124 10 28.9
2020-Aug-03 14:50 114 8 28.9
2020-Aug-03 14:45 096 6 28.9
2020-Aug-03 14:40 123 4 28.3
2020-Aug-03 14:38 113 7 28.3
2020-Aug-03 14:29 113 8 28.3
2020-Aug-03 14:24 152 6 28.9
2020-Aug-03 14:19 104 7 28.9
2020-Aug-03 14:14 100 16 28.3
2020-Aug-03 14:04 089 9 28.3
2020-Aug-03 13:59 130 9 29.4
2020-Aug-03 13:54 119 6 29.4
2020-Aug-03 13:49 125 3 28.9
2020-Aug-03 13:44 125 6 28.9
2020-Aug-03 13:39 059 4 28.9
2020-Aug-03 13:34 080 6 28.3
2020-Aug-03 13:29 065 7 28.3
2020-Aug-03 13:24 062 2 28.3
2020-Aug-03 13:19 079 5 28.3
2020-Aug-03 13:14 083 6 28.3
2020-Aug-03 13:09 089 2 28.3
2020-Aug-03 13:04 068 10 28.3
2020-Aug-03 12:59 097 28.3
2020-Aug-03 12:54 083 4 28.3
2020-Aug-03 12:49 074 9 27.8
2020-Aug-03 12:44 084 6 27.8
2020-Aug-03 12:39 029 4 27.8
2020-Aug-03 12:34 073 2 28.3
2020-Aug-03 12:29 088 28.3
2020-Aug-03 12:24 043 1 28.3
2020-Aug-03 12:19 052 2 27.8
2020-Aug-03 12:14 058 2 27.8
2020-Aug-03 12:09 045 6 27.2
2020-Aug-03 12:04 074 6 27.2
2020-Aug-03 11:59 018 6 27.2
2020-Aug-03 11:54 029 6 27.2
2020-Aug-03 11:49 056 1 27.8
2020-Aug-03 11:44 008 6 27.8
2020-Aug-03 11:39 013 27.2
2020-Aug-03 11:34 345 26.7
2020-Aug-03 11:24 033 26.7
2020-Aug-03 11:19 004 27.2
2020-Aug-03 11:14 028 0 27.2
2020-Aug-03 11:09 343 4 27.2
2020-Aug-03 11:04 332 2 27.2
2020-Aug-03 10:59 047 3 27.2
2020-Aug-03 10:54 354 5 27.2
2020-Aug-03 10:49 040 5 27.2
2020-Aug-03 10:44 027 6 27.2
2020-Aug-03 10:39 331 6 27.2
2020-Aug-03 10:34 023 4 27.2
2020-Aug-03 10:29 348 5 27.2
2020-Aug-03 10:24 008 6 27.2
2020-Aug-03 10:19 348 4 27.2
2020-Aug-03 10:14 027 0 27.8
2020-Aug-03 10:09 339 6 27.8
2020-Aug-03 10:04 329 6 27.8
2020-Aug-03 09:59 328 1 27.8
2020-Aug-03 09:54 348 27.8
2020-Aug-03 09:49 350 6 27.8
2020-Aug-03 09:44 354 3 27.8
2020-Aug-03 09:39 319 0 27.8
2020-Aug-03 09:34 008 2 27.8
2020-Aug-03 09:29 354 5 27.8
2020-Aug-03 09:24 010 1 27.2
2020-Aug-03 09:19 320 27.2
2020-Aug-03 09:14 004 2 27.2
2020-Aug-03 09:09 323 27.2
2020-Aug-03 09:04 333 27.2
2020-Aug-03 08:58 309 26.7
2020-Aug-03 08:53 325 3 26.7
2020-Aug-03 08:48 011 3 26.7
2020-Aug-03 08:43 334 26.7
2020-Aug-03 08:38 328 26.7
2020-Aug-03 08:33 299 2 26.7
2020-Aug-03 08:28 347 3 26.7
2020-Aug-03 08:23 288 2 26.7
2020-Aug-03 08:18 302 6 26.7
2020-Aug-03 08:13 297 2 26.7
2020-Aug-03 08:08 346 7 26.7
2020-Aug-03 08:03 343 5 26.7
2020-Aug-03 07:58 008 4 27.2
2020-Aug-03 07:53 033 1 27.2
2020-Aug-03 07:48 014 1 27.2
2020-Aug-03 07:43 023 27.2
2020-Aug-03 07:38 332 27.2
2020-Aug-03 07:33 309 26.7
2020-Aug-03 07:28 314 26.1
2020-Aug-03 07:23 312 1 26.1
2020-Aug-03 07:18 305 1 26.1
2020-Aug-03 07:13 308 4 26.1
2020-Aug-03 07:08 302 0 25.6
2020-Aug-03 07:03 284 25.6
2020-Aug-03 06:58 294 2 25.6
2020-Aug-03 06:53 326 25.6
2020-Aug-03 06:48 307 25.6
2020-Aug-03 06:43 303 25.6
2020-Aug-03 06:38 261 25.0
2020-Aug-03 06:33 261 25.0
2020-Aug-03 06:28 261 25.0
2020-Aug-03 06:23 151 25.0
2020-Aug-03 06:18 151 25.0
2020-Aug-03 06:13 151 25.0
2020-Aug-03 06:08 151 25.0
2020-Aug-03 06:03 149 25.0
2020-Aug-03 05:58 266 25.0
2020-Aug-03 05:53 278 25.0
2020-Aug-03 05:48 260 0 24.4
2020-Aug-03 05:43 224 24.4
2020-Aug-03 05:38 212 24.4
2020-Aug-03 05:33 209 24.4
2020-Aug-03 05:28 201 24.4
2020-Aug-03 05:23 204 24.4
2020-Aug-03 05:18 223 24.4
2020-Aug-03 05:13 215 24.4
2020-Aug-03 05:08 216 24.4
2020-Aug-03 05:03 205 1 24.4
2020-Aug-03 04:58 249 24.4
2020-Aug-03 04:53 247 2 24.4
2020-Aug-03 04:48 247 2 24.4
2020-Aug-03 04:43 239 3 24.4
2020-Aug-03 04:38 251 24.4
2020-Aug-03 04:33 260 5 24.4
2020-Aug-03 04:28 262 24.4
2020-Aug-03 04:23 233 24.4
2020-Aug-03 04:18 251 0 24.4
2020-Aug-03 04:13 260 24.4
2020-Aug-03 04:08 270 25.0
2020-Aug-03 04:03 277 25.0
2020-Aug-03 03:58 287 25.0
2020-Aug-03 03:53 297 25.0
2020-Aug-03 03:48 286 5 25.0
2020-Aug-03 03:43 295 0 25.0
2020-Aug-03 03:38 289 4 24.4
2020-Aug-03 03:33 247 1 24.4
2020-Aug-03 03:27 231 3 23.9
2020-Aug-03 03:23 253 2 23.9
2020-Aug-03 03:17 289 23.9
2020-Aug-03 03:12 261 24.4
2020-Aug-03 03:07 261 24.4
2020-Aug-03 03:03 262 24.4
2020-Aug-03 02:57 268 24.4
2020-Aug-03 02:52 269 24.4
2020-Aug-03 02:47 269 24.4
2020-Aug-03 02:42 269 24.4
2020-Aug-03 02:37 269 24.4
2020-Aug-03 02:32 270 24.4
2020-Aug-03 02:28 243 24.4
2020-Aug-03 02:22 225 24.4
2020-Aug-03 02:17 224 24.4
2020-Aug-03 02:12 226 24.4
2020-Aug-03 02:07 226 24.4
2020-Aug-03 02:02 226 24.4
2020-Aug-03 01:47 226 24.4
2020-Aug-03 01:42 226 24.4
2020-Aug-03 01:37 226 24.4
2020-Aug-03 01:32 226 25.0
2020-Aug-03 01:28 227 25.0
2020-Aug-03 01:22 228 25.0
2020-Aug-03 01:17 228 25.0
2020-Aug-03 01:12 227 25.0
2020-Aug-03 01:07 227 25.0
2020-Aug-03 01:02 191 25.0
2020-Aug-03 00:57 191 25.0
2020-Aug-03 00:52 179 25.0
2020-Aug-03 00:47 179 25.0
2020-Aug-03 00:42 179 25.0
2020-Aug-03 00:37 179 25.0
2020-Aug-03 00:32 179 25.0
2020-Aug-03 00:27 179 25.0
2020-Aug-03 00:22 178 25.0
2020-Aug-03 00:17 224 25.0
2020-Aug-03 00:12 223 25.0
2020-Aug-03 00:07 233 25.0
2020-Aug-03 00:02 209 25.0
2020-Aug-02 23:57 228 25.0
2020-Aug-02 23:52 229 25.0
2020-Aug-02 23:47 231 25.0
2020-Aug-02 23:42 203 25.0
2020-Aug-02 23:37 217 2 25.6
2020-Aug-02 23:32 211 0 25.6
2020-Aug-02 23:27 215 25.6
2020-Aug-02 23:22 219 3 25.6
2020-Aug-02 23:17 242 25.6
2020-Aug-02 23:12 251 26.1
2020-Aug-02 23:07 251 26.1
2020-Aug-02 23:02 256 26.1
2020-Aug-02 22:57 127 26.1
2020-Aug-02 22:52 127 26.1
2020-Aug-02 22:47 127 26.1
2020-Aug-02 22:42 127 26.1
2020-Aug-02 22:37 127 26.7
2020-Aug-02 22:32 127 26.7
2020-Aug-02 22:27 127 26.7
2020-Aug-02 22:22 127 26.7
2020-Aug-02 22:17 126 26.7
2020-Aug-02 22:13 126 26.7
2020-Aug-02 22:07 127 27.2
2020-Aug-02 22:02 123 27.2
2020-Aug-02 21:58 097 27.8
2020-Aug-02 21:52 122 27.2
2020-Aug-02 21:46 115 27.2
2020-Aug-02 21:41 096 27.2
2020-Aug-02 21:31 100 27.2
2020-Aug-02 21:26 108 27.2
2020-Aug-02 21:21 118 27.2
2020-Aug-02 21:16 118 27.2
2020-Aug-02 21:11 118 27.2
2020-Aug-02 21:06 118 27.2
2020-Aug-02 21:01 092 27.2
2020-Aug-02 20:56 097 27.2
2020-Aug-02 20:51 116 27.2
2020-Aug-02 20:46 116 27.2
2020-Aug-02 20:41 116 27.2
2020-Aug-02 20:36 118 27.2
2020-Aug-02 20:31 120 27.2
2020-Aug-02 20:26 125 27.2
2020-Aug-02 20:21 122 27.2
2020-Aug-02 20:16 121 27.2
2020-Aug-02 20:11 131 3 27.2
2020-Aug-02 20:06 125 27.8
2020-Aug-02 19:55 087 27.2
2020-Aug-02 19:50 110 1 27.8
2020-Aug-02 19:40 097 27.8
2020-Aug-02 19:35 078 27.8
2020-Aug-02 19:31 096 5 27.8
2020-Aug-02 19:25 099 27.8
2020-Aug-02 19:20 106 27.8
2020-Aug-02 19:16 079 27.8
2020-Aug-02 19:10 086 27.8
2020-Aug-02 19:05 093 27.8
2020-Aug-02 19:01 073 27.8
2020-Aug-02 18:55 077 27.8
2020-Aug-02 18:50 124 1 27.8
2020-Aug-02 18:40 110 27.8
2020-Aug-02 18:35 101 3 27.8
2020-Aug-02 18:31 081 27.8
2020-Aug-02 18:25 107 4 27.8
2020-Aug-02 18:21 084 1 28.3
2020-Aug-02 18:15 093 6 28.3
2020-Aug-02 18:10 083 4 28.3
2020-Aug-02 18:05 097 28.3
2020-Aug-02 17:55 072 1 28.3
2020-Aug-02 17:50 080 5 28.3
2020-Aug-02 17:45 056 1 28.3
2020-Aug-02 17:40 052 28.3
2020-Aug-02 17:35 073 2 28.3
2020-Aug-02 17:30 048 3 28.3
2020-Aug-02 17:25 056 28.3
2020-Aug-02 17:20 070 28.9
2020-Aug-02 17:15 068 28.9
2020-Aug-02 17:10 072 28.9
2020-Aug-02 17:05 063 28.9
2020-Aug-02 17:00 090 28.9
2020-Aug-02 16:55 075 28.9
2020-Aug-02 16:50 061 28.9
2020-Aug-02 16:45 065 28.9
2020-Aug-02 16:40 097 28.9
2020-Aug-02 16:35 052 28.9
2020-Aug-02 16:30 091 0 28.9
2020-Aug-02 16:25 086 2 28.9
2020-Aug-02 16:20 067 28.9
2020-Aug-02 16:15 073 2 29.4
2020-Aug-02 16:10 054 29.4
2020-Aug-02 16:05 077 6 29.4
2020-Aug-02 16:00 116 29.4
2020-Aug-02 15:55 122 1 28.9
2020-Aug-02 15:50 083 4 28.9
2020-Aug-02 15:45 111 6 28.9
2020-Aug-02 15:40 051 7 29.4
2020-Aug-02 15:35 077 29.4
2020-Aug-02 15:30 091 0 29.4
2020-Aug-02 15:25 096 5 29.4
2020-Aug-02 15:20 104 6 29.4
2020-Aug-02 15:15 122 6 29.4
2020-Aug-02 15:10 081 4 29.4
2020-Aug-02 15:05 064 6 29.4
2020-Aug-02 15:00 122 29.4
2020-Aug-02 14:55 073 6 29.4
2020-Aug-02 14:50 047 4 28.9
2020-Aug-02 14:45 067 3 28.9
2020-Aug-02 14:40 044 5 28.9
2020-Aug-02 14:35 060 3 30.0
2020-Aug-02 14:30 068 2 30.0
2020-Aug-02 14:25 084 1 29.4
2020-Aug-02 14:20 097 2 29.4
2020-Aug-02 14:15 049 4 28.9
2020-Aug-02 14:10 058 29.4
2020-Aug-02 14:05 017 3 29.4
2020-Aug-02 14:00 009 28.9
2020-Aug-02 13:55 027 6 28.9
2020-Aug-02 13:50 052 3 28.9
2020-Aug-02 13:45 079 2 28.9
2020-Aug-02 13:35 052 3 28.3
2020-Aug-02 13:29 061 4 28.3
2020-Aug-02 13:24 077 27.8
2020-Aug-02 13:19 097 27.8
2020-Aug-02 13:14 041 6 27.8
2020-Aug-02 13:09 014 2 27.8
2020-Aug-02 13:04 334 3 27.8
2020-Aug-02 12:59 036 2 27.8
2020-Aug-02 12:54 021 6 27.8
2020-Aug-02 12:49 004 6 27.8
2020-Aug-02 12:44 004 5 27.8
2020-Aug-02 12:39 048 5 27.8
2020-Aug-02 12:34 004 27.8
2020-Aug-02 12:29 332 1 28.3
2020-Aug-02 12:24 015 28.3
2020-Aug-02 12:19 359 5 28.9
2020-Aug-02 12:14 014 5 28.9
2020-Aug-02 12:09 024 3 28.9
2020-Aug-02 12:04 018 5 28.9
2020-Aug-02 11:54 345 5 28.3
2020-Aug-02 11:49 347 8 28.3
2020-Aug-02 11:44 004 5 28.3
2020-Aug-02 11:39 359 3 28.9
2020-Aug-02 11:34 339 13 28.9
2020-Aug-02 11:29 354 7 28.9
2020-Aug-02 11:24 011 8 28.9
2020-Aug-02 11:19 337 28.9
2020-Aug-02 11:14 285 8 28.9
2020-Aug-02 11:09 042 5 28.3
2020-Aug-02 11:04 354 8 28.3
2020-Aug-02 10:59 319 6 28.3
2020-Aug-02 10:54 345 6 28.3
2020-Aug-02 10:49 008 6 28.3
2020-Aug-02 10:44 354 7 28.3
2020-Aug-02 10:39 329 7 28.3
2020-Aug-02 10:34 320 1 28.3
2020-Aug-02 10:29 337 2 28.3
2020-Aug-02 10:24 342 8 28.3
2020-Aug-02 10:19 004 9 28.3
2020-Aug-02 10:14 326 6 28.3
2020-Aug-02 10:09 028 7 28.3
2020-Aug-02 10:04 348 5 28.3
2020-Aug-02 09:59 031 6 28.3
2020-Aug-02 09:54 337 6 28.3
2020-Aug-02 09:49 322 7 28.3
2020-Aug-02 09:44 004 6 28.3
2020-Aug-02 09:39 336 5 28.3
2020-Aug-02 09:34 359 10 28.3
2020-Aug-02 09:29 024 7 28.9
2020-Aug-02 09:24 004 6 28.9
2020-Aug-02 09:19 021 7 28.9
2020-Aug-02 09:14 359 8 28.9
2020-Aug-02 09:09 337 10 29.4
2020-Aug-02 09:04 034 3 29.4
2020-Aug-02 08:59 348 10 30.0
2020-Aug-02 08:54 339 30.0
2020-Aug-02 08:49 064 30.0
2020-Aug-02 08:44 139 4 30.0
2020-Aug-02 08:39 147 30.0
2020-Aug-02 08:34 122 4 29.4
2020-Aug-02 08:29 106 4 29.4
2020-Aug-02 08:24 146 2 28.9
2020-Aug-02 08:19 111 0 28.9
2020-Aug-02 08:14 113 2 28.3
2020-Aug-02 08:09 169 28.3
2020-Aug-02 08:04 127 5 28.3
2020-Aug-02 07:59 160 3 27.8
2020-Aug-02 07:54 163 27.8
2020-Aug-02 07:49 136 27.8
2020-Aug-02 07:39 149 4 27.2
2020-Aug-02 07:34 156 1 27.2
2020-Aug-02 07:29 154 27.2
2020-Aug-02 07:24 157 26.7
2020-Aug-02 07:19 177 26.7
2020-Aug-02 07:14 158 4 26.7
2020-Aug-02 07:09 199 26.1
2020-Aug-02 07:04 208 26.1
2020-Aug-02 06:59 210 25.6
2020-Aug-02 06:54 235 25.6
2020-Aug-02 06:48 243 25.6
2020-Aug-02 06:43 258 25.0
2020-Aug-02 06:38 258 25.0
2020-Aug-02 06:33 260 25.0
2020-Aug-02 06:28 260 24.4
2020-Aug-02 06:23 260 24.4
2020-Aug-02 06:18 255 0 24.4
2020-Aug-02 06:13 259 0 24.4
2020-Aug-02 06:08 244 23.9
2020-Aug-02 06:03 263 4 23.9
2020-Aug-02 05:58 262 2 23.9
2020-Aug-02 05:53 288 1 23.9
2020-Aug-02 05:48 270 23.9
2020-Aug-02 05:43 247 0 24.4
2020-Aug-02 05:38 271 2 23.9
2020-Aug-02 05:33 234 23.9
2020-Aug-02 05:28 224 3 23.9
2020-Aug-02 05:23 236 0 23.9
2020-Aug-02 05:18 210 2 23.9
2020-Aug-02 05:13 202 0 23.3
2020-Aug-02 05:08 199 4 23.3
2020-Aug-02 04:58 228 1 23.3
2020-Aug-02 04:53 201 3 23.9
2020-Aug-02 04:48 206 0 24.4
2020-Aug-02 04:43 239 24.4
2020-Aug-02 04:38 033 24.4
2020-Aug-02 04:33 018 6 23.9
2020-Aug-02 04:28 004 0 23.9
2020-Aug-02 04:23 291 23.9
2020-Aug-02 04:18 354 0 24.4
2020-Aug-02 04:13 092 24.4
2020-Aug-02 04:08 037 7 25.0
2020-Aug-02 04:03 023 1 25.6
2020-Aug-02 03:58 359 2 25.6
2020-Aug-02 03:53 342 0 25.6
2020-Aug-02 03:48 273 3 25.6
2020-Aug-02 03:43 285 5 25.6
2020-Aug-02 03:38 283 11 25.6
2020-Aug-02 03:33 299 10 25.6
2020-Aug-02 03:28 287 6 25.6
2020-Aug-02 03:23 285 8 25.6
2020-Aug-02 03:18 289 10 25.0
2020-Aug-02 03:13 304 10 25.0
2020-Aug-02 03:08 348 10 25.0
2020-Aug-02 03:03 316 6 25.6
2020-Aug-02 02:58 303 12 26.1
2020-Aug-02 02:53 303 8 26.1
2020-Aug-02 02:48 301 9 26.7
2020-Aug-02 02:43 285 17 27.2
2020-Aug-02 02:38 295 12 27.2
2020-Aug-02 02:33 312 1 27.2
2020-Aug-02 02:28 276 6 26.7
2020-Aug-02 02:23 268 6 26.7
2020-Aug-02 02:18 252 5 26.7
2020-Aug-02 02:08 264 8 26.1
2020-Aug-02 02:03 269 6 27.2
2020-Aug-02 01:58 295 27.2
2020-Aug-02 01:53 328 27.8
2020-Aug-02 01:48 328 27.8
2020-Aug-02 01:43 354 27.2
2020-Aug-02 01:38 008 27.2
2020-Aug-02 01:33 008 27.2
2020-Aug-02 01:28 106 27.2
2020-Aug-02 01:08 106 27.2
2020-Aug-02 01:03 106 27.8
2020-Aug-02 00:58 106 28.3
2020-Aug-02 00:53 106 28.3
2020-Aug-02 00:48 106 28.3
2020-Aug-02 00:43 112 28.3
2020-Aug-02 00:38 111 4 28.3
2020-Aug-02 00:33 064 28.3
2020-Aug-02 00:28 117 28.3
2020-Aug-02 00:23 080 28.3
2020-Aug-02 00:18 354 28.3
2020-Aug-02 00:13 354 28.3
2020-Aug-02 00:08 354 28.3
2020-Aug-02 00:03 354 28.3
2020-Aug-01 23:58 354 28.3
2020-Aug-01 23:53 354 28.3
2020-Aug-01 23:48 354 28.3
2020-Aug-01 23:43 346 28.3
2020-Aug-01 23:38 280 28.3
2020-Aug-01 23:33 280 28.3
2020-Aug-01 23:28 280 28.3
2020-Aug-01 23:23 280 28.3
2020-Aug-01 23:18 280 28.3
2020-Aug-01 23:13 280 28.9
2020-Aug-01 23:08 280 28.9
2020-Aug-01 23:03 280 28.9
2020-Aug-01 22:58 274 28.9
2020-Aug-01 22:53 172 28.9
2020-Aug-01 22:43 146 28.9
2020-Aug-01 22:38 146 28.9
2020-Aug-01 22:33 146 29.4
2020-Aug-01 22:28 146 29.4
2020-Aug-01 22:23 146 29.4
2020-Aug-01 22:18 146 29.4
2020-Aug-01 22:13 146 29.4
2020-Aug-01 22:03 146 29.4
2020-Aug-01 21:58 146 29.4
2020-Aug-01 21:53 146 29.4
2020-Aug-01 21:48 146 29.4
2020-Aug-01 21:43 141 29.4
2020-Aug-01 21:38 141 29.4
2020-Aug-01 21:33 141 29.4
2020-Aug-01 21:28 139 29.4
2020-Aug-01 21:23 139 29.4
2020-Aug-01 21:18 139 29.4
2020-Aug-01 21:13 139 30.0
2020-Aug-01 21:08 120 30.0
2020-Aug-01 20:58 132 0 29.4
2020-Aug-01 20:53 134 0 29.4
2020-Aug-01 20:48 140 0 29.4
2020-Aug-01 20:43 133 29.4
2020-Aug-01 20:38 131 1 29.4
2020-Aug-01 20:33 139 3 29.4
2020-Aug-01 20:28 152 2 30.0
2020-Aug-01 20:23 131 30.0
2020-Aug-01 20:18 125 30.0
2020-Aug-01 20:13 152 4 30.0
2020-Aug-01 20:08 120 2 30.0
2020-Aug-01 20:02 132 6 30.6
2020-Aug-01 19:57 109 2 30.6
2020-Aug-01 19:52 117 1 30.6
2020-Aug-01 19:47 095 4 30.6
2020-Aug-01 19:42 097 6 30.6
2020-Aug-01 19:37 106 2 30.6
2020-Aug-01 19:32 070 4 30.6
2020-Aug-01 19:27 087 2 31.1
2020-Aug-01 19:22 087 1 31.1
2020-Aug-01 19:17 086 1 31.1
2020-Aug-01 19:12 117 31.1
2020-Aug-01 19:07 095 4 31.1
2020-Aug-01 19:02 116 31.1
2020-Aug-01 18:57 116 1 31.1
2020-Aug-01 18:47 091 31.1
2020-Aug-01 18:43 114 31.1
2020-Aug-01 18:37 131 31.1
2020-Aug-01 18:32 117 31.7
2020-Aug-01 18:27 116 31.7
2020-Aug-01 18:22 131 31.7
2020-Aug-01 18:17 115 2 31.7
2020-Aug-01 18:12 136 31.7
2020-Aug-01 18:07 094 32.2
2020-Aug-01 18:02 105 32.2